Tracking 18852 objects as of 24-Nov-2017
HD Live streaming from Space Station
objects crossing your sky now

THORAD AGENA D DEB

Track THORAD AGENA D DEB now!
10-day predictions


NORAD ID: 4177
Int'l Code: 1969-082AV
Perigee: 861.9 km
Apogee: 1,020.9 km
Inclination: 70.1 °
Period: 103.7 minutes
Semi major axis: 7312 km
RCS: 0.0743 m2 (small)
Launch date: September 30, 1969
Source: United States (US)
Launch site: AIR FORCE WESTERN TEST RANGE (AFWTR)

Note: This is SATELLITE DEBRIS
aabbcc
Your satellite tracking list
Your tracking list is empty




NASA's NSSDC Master Catalog

Two Line Element Set (TLE):
1  4177U 69082AV  17327.42188129 +.00000266 +00000-0 +25158-3 0  9997
2  4177 070.0724 333.7074 0108747 107.0989 254.2058 13.88400425421647
Source of the keplerian elements: AFSPC